Aviation Digital Data Service (ADDS)

Output produced by METARs form (2048 UTC 24 June 2018)
found at http://www.aviationweather.gov/adds/metars/
 
VAAH 242030Z 24005KT 4000 HZ FEW020 SCT080 30/24 Q1000 NOSIG
TAF VAAH 242000Z 2421/2506 23004KT 4000 FU SCT020 SCT080 
     BECMG 2501/2503 25006KT 3000 HZ SCT020 SCT080 
     BECMG 2504/2506 25006KT 6000 SCT020 SCT025
       
VIAR 242030Z 00000KT 5000 HZ NSC 31/20 Q0997 NOSIG
TAF VIAR 241700Z 2418/2524 00000KT 5000 HZ NSC 
     BECMG 2500/2502 VRB02KT 3000 HZ BR SCT100 
     BECMG 2505/2507 30008G18KT 6000 FEW040 SCT100 
     BECMG 2515/2517 3500 HZ HZ DU SCT035 BKN100 
     TEMPO 2517/2524 21010G30KT 0800 DS TSRA FEW040CB OVC080
       
VIDP 242030Z 27004KT 3500 HZ SCT100 36/20 Q0998 NOSIG
TAF VIDP 242000Z 2421/2506 27004KT 3500 HZ FEW040 SCT100 
     BECMG 2500/2502 25006KT 2500 HZ 
     BECMG 2504/2505 27008KT 3500 HZ
       
VIGR 241800Z 00000KT 4000 HZ FEW025 SCT100 35/19 Q0998
VIJP 242030Z 28012KT 1600 R27/1600 -RA SCT035 FEW040CB SCT100 28/22 Q1001 TEMPO 1000 DS TSRA
TAF VIJP 241700Z 2418/2524 23006KT 2000 HZ SCT035 BKN100 
     TEMPO 2418/2423 DS TSRA 09010G20KT FEW035CB SCT035 BKN100 
     BECMG 2504/2506 32006KT 4000 HZ SCT035 SCT030 BKN100 
     BECMG 2513/2515 09005KT 2500 HZ
       
VILK 242030Z VRB02KT 2500 HZ SCT020 BKN100 31/24 Q0997 NOSIG
TAF VILK 241700Z 2418/2524 VRB02KT 2500 HZ NSC SCT020 SCT100 
     TEMPO 2421/2501 FEW030CB 
     BECMG 2503/2505 27004KT 3000 HZ 
     BECMG 2509/2511 5000 HZ 
     TEMPO 2510/2514 1500 TSRA FEW030CB BKN090 
     BECMG 2514/2516 VRB02KT 3000 HZ
       
VAAH 242030Z 24005KT 4000 HZ FEW020 SCT080 30/24 Q1000 NOSIG
TAF VAAH 242000Z 2421/2506 23004KT 4000 FU SCT020 SCT080 
     BECMG 2501/2503 25006KT 3000 HZ SCT020 SCT080 
     BECMG 2504/2506 25006KT 6000 SCT020 SCT025
       
VAAU 241800Z 23004KT 5000 HZ SCT018 BKN080 24/21 Q1007 NOSIG
VABB 242030Z 17006KT 2200 -RA FEW012 SCT015 FEW030CB OVC080 26/25 Q1002 TEMPO 1500 SHRA
TAF VABB 242000Z 2421/2506 18008KT 2500 -RA HZ SCT018 FEW025TCU BKN090 
     TEMPO 2421/2506 1000 TSRA SHRA BKN010 FEW030CB OVC080
       
VABO 241700Z 27010KT 6000 SCT020 FEW030CB BKN080 30/26 Q1002 TEMPO 3000 TSRA
VABP 241700Z 24006KT 6000 SCT025 FEW030 CB BKN100 27/22 Q1005 NOSIG
VAID 242100Z 23005KT 5000 HZ SCT020 BKN100 25/24 Q1005 NOSIG
VANP 242000Z 18004KT 4000 HZ FEW020 SCT100 29/24 Q1003 NOSIG
TAF VANP 241700Z 2418/2524 18005KT 4000 HZ FEW020 SCT100 
     BECMG 2504/2506 21005KT 6000 SCT025 
     BECMG 2512/2514 25005KT 4000 HZ FEW020 SCT100 
     TEMPO 2508/2512 23010G20KT 2000 TSRA FEW030CB
       
VASU 241530Z 16006KT 6000 FEW020 BKN080 29/26 Q1001
VAUD 241500Z 26006KT 3000 DZ SCT025 BKN080 26/23 Q1003 NOSIG
VIAR 242030Z 00000KT 5000 HZ NSC 31/20 Q0997 NOSIG
TAF VIAR 241700Z 2418/2524 00000KT 5000 HZ NSC 
     BECMG 2500/2502 VRB02KT 3000 HZ BR SCT100 
     BECMG 2505/2507 30008G18KT 6000 FEW040 SCT100 
     BECMG 2515/2517 3500 HZ HZ DU SCT035 BKN100 
     TEMPO 2517/2524 21010G30KT 0800 DS TSRA FEW040CB OVC080
       
VAAU 241800Z 23004KT 5000 HZ SCT018 BKN080 24/21 Q1007 NOSIG
VOBG 241800Z 23010KT 9999 FEW012 SCT080 22/19 Q1013
TAF VOBG 242000Z 2421/2506 25010KT 6000 SCT012 SCT080
       
VEBN 241830Z 25003KT 3000 HZ SCT100 34/24 Q0997 NOSIG
TAF VEBN 241700Z 2418/2524 16003KT 2500 HZ FEW020 SCT100 
     TEMPO 2420/2424 1500 TSRA FEW030CB BKN090 
     BECMG 2503/2505 22004KT 3000 HZ 
     BECMG 2507/2509 5000 HZ 
     TEMPO 2510/2514 1500 TSRA FEW030CB BKN090 
     BECMG 2514/2516 VRB02KT 3000 HZ
       
VEBS 242030Z 21006KT 4000 HZ SCT018 BKN100 29/27 Q1000 NOSIG
VECC 242030Z 17005KT 2400 BR SCT018 BKN100 27/26 Q0999 NOSIG
TAF VECC 242000Z 2421/2506 21005KT 2200 BR SCT018 BKN090 
     BECMG 2422/2424 1500 BR 
     BECMG 2503/2505 18006KT 3200 HZ
       
VEGT 242000Z 00000KT 2000 -RA FEW010 SCT018 FEW025 CB OVC 080 29/28 Q1000 NOSIG
VEGY 241800Z 14008KT 3000 BR BKN018 BKN100 29/25 Q0999
VEPT 242030Z 11002KT 3000 HZ SCT018 BKN100 30/24 Q0996 NOSIG
TAF VEPT 241100Z 2412/2518 09005KT 5000 HZ SCT020 BKN100 
     BECMG 2416/2418 23004KT 4000 HZ/-TSRA SCT020 FEW030CB BKN100 
     BECMG 2423/2501 09005KT 3000 HZ/-TSRA 
     BECMG 2504/2506 23005KT 4000 HZ SCT020 BKN100 
     BECMG 2507/2509 5000 HZ SCT020 SCT025TCU BKN100 
     BECMG 2514/2516 27005KT 3000 -TSRA
       
VERC 242000Z 21004KT 3000 HZ SCT018 BKN100 25/24 Q1003 NOSIG
VOBG 241800Z 23010KT 9999 FEW012 SCT080 22/19 Q1013
TAF VOBG 242000Z 2421/2506 25010KT 6000 SCT012 SCT080
       
VOBL 242030Z 26010KT 6000 SCT012 SCT080 22/22 Q1012 NOSIG
TAF VOBL 242000Z 2421/2506 25010KT 6000 SCT012 SCT080
       
VOBZ 241600Z 00000KT 2000 HZ FEW020 SCT100 33/23 Q1003 NOSIG
VOCB 242030Z 21010KT 5000 BR FEW015 SCT080 24/22 Q1010 NOSIG
TAF VOCB 241700Z 2418/2524 20010KT 5000 BR SCT015 BKN080 
     BECMG 2502/2503 6000 
     BECMG 2505/2506 23010G25KT 
     BECMG 2512/2513 20010KT 
     BECMG 2518/2519 5000 BR
       
VOCI 242030Z 00000KT 3500 HZ SCT012 BKN090 26/24 Q1008 NOSIG
TAF VOCI 242000Z 2421/2506 00000KT 2500 RA BR FEW008 SCT012 BKN080 
     BECMG 2503/2504 09005KT 4000 HZ SCT012 FEW025CB SCT080
       
VOCL 242030Z 06003KT 4000 BR SCT012 BKN080 24/21 Q1008 NOSIG
TAF VOCL 241700Z 2418/2524 36005KT 4000 RA HZ SCT006 SCT012 FEW025CB BKN080 
     TEMPO 2422/2503 VRB03KT 3000 BR -RA SCT005 SCT012 BKN080 
     BECMG 2503/2504 31005KT 5000 HZ FEW005 SCT012 FEW025CB OVC080 
     TEMPO 2509/2514 31010KT 3000 -SHRA RA 
     BECMG 2514/2515 5000 HZ SCT015 BKN080 
     BECMG 2519/2520 VRB03KT 4000 RA HZ
       
VOGO 241730Z 15006KT 5000 BR FEW010 SCT014 BKN070 25/24 Q1007 TEMPO 4000 RA/DZ
TAF VOHB 241100Z 2412/2421 27010KT 6000 SCT012 SCT080 
     TEMPO 2412/2415 3000 RA DZ SCT008 SCT012 BKN080
       
VOHS 242030Z 26004KT 6000 SCT020 BKN100 24/22 Q1007 NOSIG
TAF VOHS 241700Z 2418/2524 25006KT 6000 SCT020 BKN100 
     TEMPO 2423/2503 25008KT 3000 BR -RA SCT010 SCT015 FEW030CB BKN090 
     BECMG 2504/2506 26008G18KT 6000 SCT015 SCT100 
     TEMPO 2511/2518 26010KT 3000 HZ -RA SCT025 FEW030CB BKN090
       
VOHY 241600Z 26005KT 6000 FEW015 SCT100 29/23 Q1009 NOSIG
VOMD 241800Z 28010KT 6000 FEW020 29/22 Q1009 NOSIG
TAF VOMD 241700Z 2418/2524 30010KT 6000 FEW020 SCT100 
     BECMG 2500/2501 00000KT 
     BECMG 2504/2506 29010G25KT 
     TEMPO 2510/2515 SCT020 FEW025TCU/CB SCT100 
     BECMG 2514/2515 29010KT
       
VOML 242030Z 12006KT 3000 -RA BR FEW006 SCT012 BKN080 24/23 Q1008 NOSIG
TAF VOML 242000Z 2421/2506 11005KT 6000 SCT012 BKN080 
     TEMPO 2421/2503 3000 DZ BR SCT004 SCT012 BKN080
       
VOMM 242030Z 00000KT 6000 FEW020 SCT100 29/25 Q1006 NOSIG
TAF VOMM 241700Z 2418/2524 18010KT 6000 SCT020 SCT100 
     BECMG 2503/2504 25010KT 
     BECMG 2510/2511 16010KT 
     TEMPO 2510/2516 SCT020 FEW025TCU/CB BKN100 
     BECMG 2521/2522 23010KT
       
VOPB 241700Z 23009KT 3500 BR FEW012 BKN090 28/25 Q1009 TEMPO DZ
VORY 241600Z 18006KT 6000 SCT020 30/25 Q1004 NOSIG
VOTP 241530Z 20002KT 6000 SCT020 FEW030CB SCT090 32/21 Q1005 NOSIG
VOTR 242000Z 28006KT 6000 FEW018 SCT100 29/21 Q1007 NOSIG
TAF VOTR 241700Z 2418/2524 28010KT 6000 FEW020 SCT100 
     BECMG 2506/2507 27010G25KT 
     BECMG 2512/2513 29010KT 
     TEMPO 2510/2515 SCT020 FEW025TCU/CB BKN100
       
VOTV 242030Z 36003KT 3000 HZ FEW010 SCT015 FEW025CB BKN080 26/24 Q1008 NOSIG
TAF VOTV 241700Z 2418/2524 33005KT 4000 HZ SCT015 SCT080 
     BECMG 2419/2420 3000 RA HZ SCT012 BKN080 
     TEMPO 2422/2503 VRB03KT 2500 HZ -RA 
     BECMG 2503/2504 33010KT 5000 HZ SCT015 FEW025TCU 
     TEMPO 2508/2513 3000 SHRA RA SCT012 FEW025CB BKN080 
     BECMG 2513/2514 33005KT 4000 HZ RA 
     BECMG 2519/2520 VRB05KT 3000 RA HZ SCT012 OVC080
       
VOVZ 241900Z 24007KT 6000 FEW016 SCT090 30/26 Q1003 NOSIG
VIAR 242030Z 00000KT 5000 HZ NSC 31/20 Q0997 NOSIG
TAF VIAR 241700Z 2418/2524 00000KT 5000 HZ NSC 
     BECMG 2500/2502 VRB02KT 3000 HZ BR SCT100 
     BECMG 2505/2507 30008G18KT 6000 FEW040 SCT100 
     BECMG 2515/2517 3500 HZ HZ DU SCT035 BKN100 
     TEMPO 2517/2524 21010G30KT 0800 DS TSRA FEW040CB OVC080
       
VIDP 242030Z 27004KT 3500 HZ SCT100 36/20 Q0998 NOSIG
TAF VIDP 242000Z 2421/2506 27004KT 3500 HZ FEW040 SCT100 
     BECMG 2500/2502 25006KT 2500 HZ 
     BECMG 2504/2505 27008KT 3500 HZ
       
VIGR 241800Z 00000KT 4000 HZ FEW025 SCT100 35/19 Q0998
VIJP 242030Z 28012KT 1600 R27/1600 -RA SCT035 FEW040CB SCT100 28/22 Q1001 TEMPO 1000 DS TSRA
TAF VIJP 241700Z 2418/2524 23006KT 2000 HZ SCT035 BKN100 
     TEMPO 2418/2423 DS TSRA 09010G20KT FEW035CB SCT035 BKN100 
     BECMG 2504/2506 32006KT 4000 HZ SCT035 SCT030 BKN100 
     BECMG 2513/2515 09005KT 2500 HZ
       
VILK 242030Z VRB02KT 2500 HZ SCT020 BKN100 31/24 Q0997 NOSIG
TAF VILK 241700Z 2418/2524 VRB02KT 2500 HZ NSC SCT020 SCT100 
     TEMPO 2421/2501 FEW030CB 
     BECMG 2503/2505 27004KT 3000 HZ 
     BECMG 2509/2511 5000 HZ 
     TEMPO 2510/2514 1500 TSRA FEW030CB BKN090 
     BECMG 2514/2516 VRB02KT 3000 HZ
       
VABP 241700Z 24006KT 6000 SCT025 FEW030 CB BKN100 27/22 Q1005 NOSIG
VEBS 242030Z 21006KT 4000 HZ SCT018 BKN100 29/27 Q1000 NOSIG
VERC 242000Z 21004KT 3000 HZ SCT018 BKN100 25/24 Q1003 NOSIG
VOCL 242030Z 06003KT 4000 BR SCT012 BKN080 24/21 Q1008 NOSIG
TAF VOCL 241700Z 2418/2524 36005KT 4000 RA HZ SCT006 SCT012 FEW025CB BKN080 
     TEMPO 2422/2503 VRB03KT 3000 BR -RA SCT005 SCT012 BKN080 
     BECMG 2503/2504 31005KT 5000 HZ FEW005 SCT012 FEW025CB OVC080 
     TEMPO 2509/2514 31010KT 3000 -SHRA RA 
     BECMG 2514/2515 5000 HZ SCT015 BKN080 
     BECMG 2519/2520 VRB03KT 4000 RA HZ
       
VOMM 242030Z 00000KT 6000 FEW020 SCT100 29/25 Q1006 NOSIG
TAF VOMM 241700Z 2418/2524 18010KT 6000 SCT020 SCT100 
     BECMG 2503/2504 25010KT 
     BECMG 2510/2511 16010KT 
     TEMPO 2510/2516 SCT020 FEW025TCU/CB BKN100 
     BECMG 2521/2522 23010KT
       
VABB 242030Z 17006KT 2200 -RA FEW012 SCT015 FEW030CB OVC080 26/25 Q1002 TEMPO 1500 SHRA
TAF VABB 242000Z 2421/2506 18008KT 2500 -RA HZ SCT018 FEW025TCU BKN090 
     TEMPO 2421/2506 1000 TSRA SHRA BKN010 FEW030CB OVC080
       
VOCI 242030Z 00000KT 3500 HZ SCT012 BKN090 26/24 Q1008 NOSIG
TAF VOCI 242000Z 2421/2506 00000KT 2500 RA BR FEW008 SCT012 BKN080 
     BECMG 2503/2504 09005KT 4000 HZ SCT012 FEW025CB SCT080
       
VOCB 242030Z 21010KT 5000 BR FEW015 SCT080 24/22 Q1010 NOSIG
TAF VOCB 241700Z 2418/2524 20010KT 5000 BR SCT015 BKN080 
     BECMG 2502/2503 6000 
     BECMG 2505/2506 23010G25KT 
     BECMG 2512/2513 20010KT 
     BECMG 2518/2519 5000 BR
       
VAID 242100Z 23005KT 5000 HZ SCT020 BKN100 25/24 Q1005 NOSIG
VEBN 241830Z 25003KT 3000 HZ SCT100 34/24 Q0997 NOSIG
TAF VEBN 241700Z 2418/2524 16003KT 2500 HZ FEW020 SCT100 
     TEMPO 2420/2424 1500 TSRA FEW030CB BKN090 
     BECMG 2503/2505 22004KT 3000 HZ 
     BECMG 2507/2509 5000 HZ 
     TEMPO 2510/2514 1500 TSRA FEW030CB BKN090 
     BECMG 2514/2516 VRB02KT 3000 HZ
       
VEBS 242030Z 21006KT 4000 HZ SCT018 BKN100 29/27 Q1000 NOSIG
VECC 242030Z 17005KT 2400 BR SCT018 BKN100 27/26 Q0999 NOSIG
TAF VECC 242000Z 2421/2506 21005KT 2200 BR SCT018 BKN090 
     BECMG 2422/2424 1500 BR 
     BECMG 2503/2505 18006KT 3200 HZ
       
VEGT 242000Z 00000KT 2000 -RA FEW010 SCT018 FEW025 CB OVC 080 29/28 Q1000 NOSIG
VEGY 241800Z 14008KT 3000 BR BKN018 BKN100 29/25 Q0999
VEPT 242030Z 11002KT 3000 HZ SCT018 BKN100 30/24 Q0996 NOSIG
TAF VEPT 241100Z 2412/2518 09005KT 5000 HZ SCT020 BKN100 
     BECMG 2416/2418 23004KT 4000 HZ/-TSRA SCT020 FEW030CB BKN100 
     BECMG 2423/2501 09005KT 3000 HZ/-TSRA 
     BECMG 2504/2506 23005KT 4000 HZ SCT020 BKN100 
     BECMG 2507/2509 5000 HZ SCT020 SCT025TCU BKN100 
     BECMG 2514/2516 27005KT 3000 -TSRA
       
VERC 242000Z 21004KT 3000 HZ SCT018 BKN100 25/24 Q1003 NOSIG
VAAH 242030Z 24005KT 4000 HZ FEW020 SCT080 30/24 Q1000 NOSIG
TAF VAAH 242000Z 2421/2506 23004KT 4000 FU SCT020 SCT080 
     BECMG 2501/2503 25006KT 3000 HZ SCT020 SCT080 
     BECMG 2504/2506 25006KT 6000 SCT020 SCT025
       
VAAU 241800Z 23004KT 5000 HZ SCT018 BKN080 24/21 Q1007 NOSIG
VABB 242030Z 17006KT 2200 -RA FEW012 SCT015 FEW030CB OVC080 26/25 Q1002 TEMPO 1500 SHRA
TAF VABB 242000Z 2421/2506 18008KT 2500 -RA HZ SCT018 FEW025TCU BKN090 
     TEMPO 2421/2506 1000 TSRA SHRA BKN010 FEW030CB OVC080
       
VABO 241700Z 27010KT 6000 SCT020 FEW030CB BKN080 30/26 Q1002 TEMPO 3000 TSRA
VABP 241700Z 24006KT 6000 SCT025 FEW030 CB BKN100 27/22 Q1005 NOSIG
VAID 242100Z 23005KT 5000 HZ SCT020 BKN100 25/24 Q1005 NOSIG
VANP 242000Z 18004KT 4000 HZ FEW020 SCT100 29/24 Q1003 NOSIG
TAF VANP 241700Z 2418/2524 18005KT 4000 HZ FEW020 SCT100 
     BECMG 2504/2506 21005KT 6000 SCT025 
     BECMG 2512/2514 25005KT 4000 HZ FEW020 SCT100 
     TEMPO 2508/2512 23010G20KT 2000 TSRA FEW030CB
       
VASU 241530Z 16006KT 6000 FEW020 BKN080 29/26 Q1001
VAUD 241500Z 26006KT 3000 DZ SCT025 BKN080 26/23 Q1003 NOSIG
VIAR 242030Z 00000KT 5000 HZ NSC 31/20 Q0997 NOSIG
TAF VIAR 241700Z 2418/2524 00000KT 5000 HZ NSC 
     BECMG 2500/2502 VRB02KT 3000 HZ BR SCT100 
     BECMG 2505/2507 30008G18KT 6000 FEW040 SCT100 
     BECMG 2515/2517 3500 HZ HZ DU SCT035 BKN100 
     TEMPO 2517/2524 21010G30KT 0800 DS TSRA FEW040CB OVC080
       
VIDP 242030Z 27004KT 3500 HZ SCT100 36/20 Q0998 NOSIG
TAF VIDP 242000Z 2421/2506 27004KT 3500 HZ FEW040 SCT100 
     BECMG 2500/2502 25006KT 2500 HZ 
     BECMG 2504/2505 27008KT 3500 HZ
       
VIGR 241800Z 00000KT 4000 HZ FEW025 SCT100 35/19 Q0998
VIJP 242030Z 28012KT 1600 R27/1600 -RA SCT035 FEW040CB SCT100 28/22 Q1001 TEMPO 1000 DS TSRA
TAF VIJP 241700Z 2418/2524 23006KT 2000 HZ SCT035 BKN100 
     TEMPO 2418/2423 DS TSRA 09010G20KT FEW035CB SCT035 BKN100 
     BECMG 2504/2506 32006KT 4000 HZ SCT035 SCT030 BKN100 
     BECMG 2513/2515 09005KT 2500 HZ
       
VILK 242030Z VRB02KT 2500 HZ SCT020 BKN100 31/24 Q0997 NOSIG
TAF VILK 241700Z 2418/2524 VRB02KT 2500 HZ NSC SCT020 SCT100 
     TEMPO 2421/2501 FEW030CB 
     BECMG 2503/2505 27004KT 3000 HZ 
     BECMG 2509/2511 5000 HZ 
     TEMPO 2510/2514 1500 TSRA FEW030CB BKN090 
     BECMG 2514/2516 VRB02KT 3000 HZ
       
VEBN 241830Z 25003KT 3000 HZ SCT100 34/24 Q0997 NOSIG
TAF VEBN 241700Z 2418/2524 16003KT 2500 HZ FEW020 SCT100 
     TEMPO 2420/2424 1500 TSRA FEW030CB BKN090 
     BECMG 2503/2505 22004KT 3000 HZ 
     BECMG 2507/2509 5000 HZ 
     TEMPO 2510/2514 1500 TSRA FEW030CB BKN090 
     BECMG 2514/2516 VRB02KT 3000 HZ
       
VEBS 242030Z 21006KT 4000 HZ SCT018 BKN100 29/27 Q1000 NOSIG
VECC 242030Z 17005KT 2400 BR SCT018 BKN100 27/26 Q0999 NOSIG
TAF VECC 242000Z 2421/2506 21005KT 2200 BR SCT018 BKN090 
     BECMG 2422/2424 1500 BR 
     BECMG 2503/2505 18006KT 3200 HZ
       
VEGT 242000Z 00000KT 2000 -RA FEW010 SCT018 FEW025 CB OVC 080 29/28 Q1000 NOSIG
VEGY 241800Z 14008KT 3000 BR BKN018 BKN100 29/25 Q0999
VEPT 242030Z 11002KT 3000 HZ SCT018 BKN100 30/24 Q0996 NOSIG
TAF VEPT 241100Z 2412/2518 09005KT 5000 HZ SCT020 BKN100 
     BECMG 2416/2418 23004KT 4000 HZ/-TSRA SCT020 FEW030CB BKN100 
     BECMG 2423/2501 09005KT 3000 HZ/-TSRA 
     BECMG 2504/2506 23005KT 4000 HZ SCT020 BKN100 
     BECMG 2507/2509 5000 HZ SCT020 SCT025TCU BKN100 
     BECMG 2514/2516 27005KT 3000 -TSRA
       
VERC 242000Z 21004KT 3000 HZ SCT018 BKN100 25/24 Q1003 NOSIG
VEGT 242000Z 00000KT 2000 -RA FEW010 SCT018 FEW025 CB OVC 080 29/28 Q1000 NOSIG
VIGR 241800Z 00000KT 4000 HZ FEW025 SCT100 35/19 Q0998
VOBG 241800Z 23010KT 9999 FEW012 SCT080 22/19 Q1013
TAF VOBG 242000Z 2421/2506 25010KT 6000 SCT012 SCT080
       
VOBL 242030Z 26010KT 6000 SCT012 SCT080 22/22 Q1012 NOSIG
TAF VOBL 242000Z 2421/2506 25010KT 6000 SCT012 SCT080
       
VOBZ 241600Z 00000KT 2000 HZ FEW020 SCT100 33/23 Q1003 NOSIG
VOCB 242030Z 21010KT 5000 BR FEW015 SCT080 24/22 Q1010 NOSIG
TAF VOCB 241700Z 2418/2524 20010KT 5000 BR SCT015 BKN080 
     BECMG 2502/2503 6000 
     BECMG 2505/2506 23010G25KT 
     BECMG 2512/2513 20010KT 
     BECMG 2518/2519 5000 BR
       
VOCI 242030Z 00000KT 3500 HZ SCT012 BKN090 26/24 Q1008 NOSIG
TAF VOCI 242000Z 2421/2506 00000KT 2500 RA BR FEW008 SCT012 BKN080 
     BECMG 2503/2504 09005KT 4000 HZ SCT012 FEW025CB SCT080
       
VOCL 242030Z 06003KT 4000 BR SCT012 BKN080 24/21 Q1008 NOSIG
TAF VOCL 241700Z 2418/2524 36005KT 4000 RA HZ SCT006 SCT012 FEW025CB BKN080 
     TEMPO 2422/2503 VRB03KT 3000 BR -RA SCT005 SCT012 BKN080 
     BECMG 2503/2504 31005KT 5000 HZ FEW005 SCT012 FEW025CB OVC080 
     TEMPO 2509/2514 31010KT 3000 -SHRA RA 
     BECMG 2514/2515 5000 HZ SCT015 BKN080 
     BECMG 2519/2520 VRB03KT 4000 RA HZ
       
VOGO 241730Z 15006KT 5000 BR FEW010 SCT014 BKN070 25/24 Q1007 TEMPO 4000 RA/DZ
TAF VOHB 241100Z 2412/2421 27010KT 6000 SCT012 SCT080 
     TEMPO 2412/2415 3000 RA DZ SCT008 SCT012 BKN080
       
VOHS 242030Z 26004KT 6000 SCT020 BKN100 24/22 Q1007 NOSIG
TAF VOHS 241700Z 2418/2524 25006KT 6000 SCT020 BKN100 
     TEMPO 2423/2503 25008KT 3000 BR -RA SCT010 SCT015 FEW030CB BKN090 
     BECMG 2504/2506 26008G18KT 6000 SCT015 SCT100 
     TEMPO 2511/2518 26010KT 3000 HZ -RA SCT025 FEW030CB BKN090
       
VOHY 241600Z 26005KT 6000 FEW015 SCT100 29/23 Q1009 NOSIG
VOMD 241800Z 28010KT 6000 FEW020 29/22 Q1009 NOSIG
TAF VOMD 241700Z 2418/2524 30010KT 6000 FEW020 SCT100 
     BECMG 2500/2501 00000KT 
     BECMG 2504/2506 29010G25KT 
     TEMPO 2510/2515 SCT020 FEW025TCU/CB SCT100 
     BECMG 2514/2515 29010KT
       
VOML 242030Z 12006KT 3000 -RA BR FEW006 SCT012 BKN080 24/23 Q1008 NOSIG
TAF VOML 242000Z 2421/2506 11005KT 6000 SCT012 BKN080 
     TEMPO 2421/2503 3000 DZ BR SCT004 SCT012 BKN080
       
VOMM 242030Z 00000KT 6000 FEW020 SCT100 29/25 Q1006 NOSIG
TAF VOMM 241700Z 2418/2524 18010KT 6000 SCT020 SCT100 
     BECMG 2503/2504 25010KT 
     BECMG 2510/2511 16010KT 
     TEMPO 2510/2516 SCT020 FEW025TCU/CB BKN100 
     BECMG 2521/2522 23010KT
       
VOPB 241700Z 23009KT 3500 BR FEW012 BKN090 28/25 Q1009 TEMPO DZ
VORY 241600Z 18006KT 6000 SCT020 30/25 Q1004 NOSIG
VOTP 241530Z 20002KT 6000 SCT020 FEW030CB SCT090 32/21 Q1005 NOSIG
VOTR 242000Z 28006KT 6000 FEW018 SCT100 29/21 Q1007 NOSIG
TAF VOTR 241700Z 2418/2524 28010KT 6000 FEW020 SCT100 
     BECMG 2506/2507 27010G25KT 
     BECMG 2512/2513 29010KT 
     TEMPO 2510/2515 SCT020 FEW025TCU/CB BKN100
       
VOTV 242030Z 36003KT 3000 HZ FEW010 SCT015 FEW025CB BKN080 26/24 Q1008 NOSIG
TAF VOTV 241700Z 2418/2524 33005KT 4000 HZ SCT015 SCT080 
     BECMG 2419/2420 3000 RA HZ SCT012 BKN080 
     TEMPO 2422/2503 VRB03KT 2500 HZ -RA 
     BECMG 2503/2504 33010KT 5000 HZ SCT015 FEW025TCU 
     TEMPO 2508/2513 3000 SHRA RA SCT012 FEW025CB BKN080 
     BECMG 2513/2514 33005KT 4000 HZ RA 
     BECMG 2519/2520 VRB05KT 3000 RA HZ SCT012 OVC080
       
VOVZ 241900Z 24007KT 6000 FEW016 SCT090 30/26 Q1003 NOSIG
VIAR 242030Z 00000KT 5000 HZ NSC 31/20 Q0997 NOSIG
TAF VIAR 241700Z 2418/2524 00000KT 5000 HZ NSC 
     BECMG 2500/2502 VRB02KT 3000 HZ BR SCT100 
     BECMG 2505/2507 30008G18KT 6000 FEW040 SCT100 
     BECMG 2515/2517 3500 HZ HZ DU SCT035 BKN100 
     TEMPO 2517/2524 21010G30KT 0800 DS TSRA FEW040CB OVC080
       
VIDP 242030Z 27004KT 3500 HZ SCT100 36/20 Q0998 NOSIG
TAF VIDP 242000Z 2421/2506 27004KT 3500 HZ FEW040 SCT100 
     BECMG 2500/2502 25006KT 2500 HZ 
     BECMG 2504/2505 27008KT 3500 HZ
       
VIGR 241800Z 00000KT 4000 HZ FEW025 SCT100 35/19 Q0998
VIJP 242030Z 28012KT 1600 R27/1600 -RA SCT035 FEW040CB SCT100 28/22 Q1001 TEMPO 1000 DS TSRA
TAF VIJP 241700Z 2418/2524 23006KT 2000 HZ SCT035 BKN100 
     TEMPO 2418/2423 DS TSRA 09010G20KT FEW035CB SCT035 BKN100 
     BECMG 2504/2506 32006KT 4000 HZ SCT035 SCT030 BKN100 
     BECMG 2513/2515 09005KT 2500 HZ
       
VILK 242030Z VRB02KT 2500 HZ SCT020 BKN100 31/24 Q0997 NOSIG
TAF VILK 241700Z 2418/2524 VRB02KT 2500 HZ NSC SCT020 SCT100 
     TEMPO 2421/2501 FEW030CB 
     BECMG 2503/2505 27004KT 3000 HZ 
     BECMG 2509/2511 5000 HZ 
     TEMPO 2510/2514 1500 TSRA FEW030CB BKN090 
     BECMG 2514/2516 VRB02KT 3000 HZ
       
VIAR 242030Z 00000KT 5000 HZ NSC 31/20 Q0997 NOSIG
TAF VIAR 241700Z 2418/2524 00000KT 5000 HZ NSC 
     BECMG 2500/2502 VRB02KT 3000 HZ BR SCT100 
     BECMG 2505/2507 30008G18KT 6000 FEW040 SCT100 
     BECMG 2515/2517 3500 HZ HZ DU SCT035 BKN100 
     TEMPO 2517/2524 21010G30KT 0800 DS TSRA FEW040CB OVC080
       
VIDP 242030Z 27004KT 3500 HZ SCT100 36/20 Q0998 NOSIG
TAF VIDP 242000Z 2421/2506 27004KT 3500 HZ FEW040 SCT100 
     BECMG 2500/2502 25006KT 2500 HZ 
     BECMG 2504/2505 27008KT 3500 HZ
       
VIGR 241800Z 00000KT 4000 HZ FEW025 SCT100 35/19 Q0998
VIJP 242030Z 28012KT 1600 R27/1600 -RA SCT035 FEW040CB SCT100 28/22 Q1001 TEMPO 1000 DS TSRA
TAF VIJP 241700Z 2418/2524 23006KT 2000 HZ SCT035 BKN100 
     TEMPO 2418/2423 DS TSRA 09010G20KT FEW035CB SCT035 BKN100 
     BECMG 2504/2506 32006KT 4000 HZ SCT035 SCT030 BKN100 
     BECMG 2513/2515 09005KT 2500 HZ
       
VILK 242030Z VRB02KT 2500 HZ SCT020 BKN100 31/24 Q0997 NOSIG
TAF VILK 241700Z 2418/2524 VRB02KT 2500 HZ NSC SCT020 SCT100 
     TEMPO 2421/2501 FEW030CB 
     BECMG 2503/2505 27004KT 3000 HZ 
     BECMG 2509/2511 5000 HZ 
     TEMPO 2510/2514 1500 TSRA FEW030CB BKN090 
     BECMG 2514/2516 VRB02KT 3000 HZ
       
VEBN 241830Z 25003KT 3000 HZ SCT100 34/24 Q0997 NOSIG
TAF VEBN 241700Z 2418/2524 16003KT 2500 HZ FEW020 SCT100 
     TEMPO 2420/2424 1500 TSRA FEW030CB BKN090 
     BECMG 2503/2505 22004KT 3000 HZ 
     BECMG 2507/2509 5000 HZ 
     TEMPO 2510/2514 1500 TSRA FEW030CB BKN090 
     BECMG 2514/2516 VRB02KT 3000 HZ
       
VEBS 242030Z 21006KT 4000 HZ SCT018 BKN100 29/27 Q1000 NOSIG
VECC 242030Z 17005KT 2400 BR SCT018 BKN100 27/26 Q0999 NOSIG
TAF VECC 242000Z 2421/2506 21005KT 2200 BR SCT018 BKN090 
     BECMG 2422/2424 1500 BR 
     BECMG 2503/2505 18006KT 3200 HZ
       
VEGT 242000Z 00000KT 2000 -RA FEW010 SCT018 FEW025 CB OVC 080 29/28 Q1000 NOSIG
VEGY 241800Z 14008KT 3000 BR BKN018 BKN100 29/25 Q0999
VEPT 242030Z 11002KT 3000 HZ SCT018 BKN100 30/24 Q0996 NOSIG
TAF VEPT 241100Z 2412/2518 09005KT 5000 HZ SCT020 BKN100 
     BECMG 2416/2418 23004KT 4000 HZ/-TSRA SCT020 FEW030CB BKN100 
     BECMG 2423/2501 09005KT 3000 HZ/-TSRA 
     BECMG 2504/2506 23005KT 4000 HZ SCT020 BKN100 
     BECMG 2507/2509 5000 HZ SCT020 SCT025TCU BKN100 
     BECMG 2514/2516 27005KT 3000 -TSRA
       
VERC 242000Z 21004KT 3000 HZ SCT018 BKN100 25/24 Q1003 NOSIG
VOHY 241600Z 26005KT 6000 FEW015 SCT100 29/23 Q1009 NOSIG
VIDP 242030Z 27004KT 3500 HZ SCT100 36/20 Q0998 NOSIG
TAF VIDP 242000Z 2421/2506 27004KT 3500 HZ FEW040 SCT100 
     BECMG 2500/2502 25006KT 2500 HZ 
     BECMG 2504/2505 27008KT 3500 HZ
       
VIJP 242030Z 28012KT 1600 R27/1600 -RA SCT035 FEW040CB SCT100 28/22 Q1001 TEMPO 1000 DS TSRA
TAF VIJP 241700Z 2418/2524 23006KT 2000 HZ SCT035 BKN100 
     TEMPO 2418/2423 DS TSRA 09010G20KT FEW035CB SCT035 BKN100 
     BECMG 2504/2506 32006KT 4000 HZ SCT035 SCT030 BKN100 
     BECMG 2513/2515 09005KT 2500 HZ
       
VILK 242030Z VRB02KT 2500 HZ SCT020 BKN100 31/24 Q0997 NOSIG
TAF VILK 241700Z 2418/2524 VRB02KT 2500 HZ NSC SCT020 SCT100 
     TEMPO 2421/2501 FEW030CB 
     BECMG 2503/2505 27004KT 3000 HZ 
     BECMG 2509/2511 5000 HZ 
     TEMPO 2510/2514 1500 TSRA FEW030CB BKN090 
     BECMG 2514/2516 VRB02KT 3000 HZ
       
VOMD 241800Z 28010KT 6000 FEW020 29/22 Q1009 NOSIG
TAF VOMD 241700Z 2418/2524 30010KT 6000 FEW020 SCT100 
     BECMG 2500/2501 00000KT 
     BECMG 2504/2506 29010G25KT 
     TEMPO 2510/2515 SCT020 FEW025TCU/CB SCT100 
     BECMG 2514/2515 29010KT
       
VOML 242030Z 12006KT 3000 -RA BR FEW006 SCT012 BKN080 24/23 Q1008 NOSIG
TAF VOML 242000Z 2421/2506 11005KT 6000 SCT012 BKN080 
     TEMPO 2421/2503 3000 DZ BR SCT004 SCT012 BKN080
       
VANP 242000Z 18004KT 4000 HZ FEW020 SCT100 29/24 Q1003 NOSIG
TAF VANP 241700Z 2418/2524 18005KT 4000 HZ FEW020 SCT100 
     BECMG 2504/2506 21005KT 6000 SCT025 
     BECMG 2512/2514 25005KT 4000 HZ FEW020 SCT100 
     TEMPO 2508/2512 23010G20KT 2000 TSRA FEW030CB
       
VECC 242030Z 17005KT 2400 BR SCT018 BKN100 27/26 Q0999 NOSIG
TAF VECC 242000Z 2421/2506 21005KT 2200 BR SCT018 BKN090 
     BECMG 2422/2424 1500 BR 
     BECMG 2503/2505 18006KT 3200 HZ
       
VEPT 242030Z 11002KT 3000 HZ SCT018 BKN100 30/24 Q0996 NOSIG
TAF VEPT 241100Z 2412/2518 09005KT 5000 HZ SCT020 BKN100 
     BECMG 2416/2418 23004KT 4000 HZ/-TSRA SCT020 FEW030CB BKN100 
     BECMG 2423/2501 09005KT 3000 HZ/-TSRA 
     BECMG 2504/2506 23005KT 4000 HZ SCT020 BKN100 
     BECMG 2507/2509 5000 HZ SCT020 SCT025TCU BKN100 
     BECMG 2514/2516 27005KT 3000 -TSRA
       
VOPB 241700Z 23009KT 3500 BR FEW012 BKN090 28/25 Q1009 TEMPO DZ
VORY 241600Z 18006KT 6000 SCT020 30/25 Q1004 NOSIG
VASU 241530Z 16006KT 6000 FEW020 BKN080 29/26 Q1001
VOTV 242030Z 36003KT 3000 HZ FEW010 SCT015 FEW025CB BKN080 26/24 Q1008 NOSIG
TAF VOTV 241700Z 2418/2524 33005KT 4000 HZ SCT015 SCT080 
     BECMG 2419/2420 3000 RA HZ SCT012 BKN080 
     TEMPO 2422/2503 VRB03KT 2500 HZ -RA 
     BECMG 2503/2504 33010KT 5000 HZ SCT015 FEW025TCU 
     TEMPO 2508/2513 3000 SHRA RA SCT012 FEW025CB BKN080 
     BECMG 2513/2514 33005KT 4000 HZ RA 
     BECMG 2519/2520 VRB05KT 3000 RA HZ SCT012 OVC080
       
VOTR 242000Z 28006KT 6000 FEW018 SCT100 29/21 Q1007 NOSIG
TAF VOTR 241700Z 2418/2524 28010KT 6000 FEW020 SCT100 
     BECMG 2506/2507 27010G25KT 
     BECMG 2512/2513 29010KT 
     TEMPO 2510/2515 SCT020 FEW025TCU/CB BKN100
       
VOTP 241530Z 20002KT 6000 SCT020 FEW030CB SCT090 32/21 Q1005 NOSIG
VAUD 241500Z 26006KT 3000 DZ SCT025 BKN080 26/23 Q1003 NOSIG
VABO 241700Z 27010KT 6000 SCT020 FEW030CB BKN080 30/26 Q1002 TEMPO 3000 TSRA
VOBZ 241600Z 00000KT 2000 HZ FEW020 SCT100 33/23 Q1003 NOSIG